Simultaneous Nadir Overpasses (SNOs) Predictions

Prediction of SNOs between AQUA and NOAA-19 Satellite Orbit:

Table of predicted SNOs for the next 14.0 days since TLE Epoch: 9/10/2022
Index Date (AQUA) Time (AQUA) Lat,Lon (AQUA) SZA (AQUA ) Date (NOAA-19) Time (NOAA-19) Lat,Lon (NOAA-19) SZA (NOAA-19 ) Distance(km) Time Diff (sec)
1 09/12/2022 09:13:41 -77.30,-153.11 106.51 09/12/2022 09:13:27 -77.30,-153.12 106.50 0.45 14
2 09/12/2022 10:03:08 77.33, 14.41 73.54 09/12/2022 10:04:22 77.38, 14.51 73.57 6.25 74
3 09/14/2022 14:46:50 77.30, -56.40 74.34 09/14/2022 14:46:16 77.29, -56.31 74.33 2.58 34
4 09/14/2022 15:36:16 -77.32, 111.18 105.64 09/14/2022 15:37:17 -77.35, 111.20 105.62 3.13 61
5 09/16/2022 20:19:57 -77.26, 40.50 104.87 09/16/2022 20:19:10 -77.27, 40.45 104.84 1.98 47
6 09/16/2022 21:09:25 77.34,-152.17 75.24 09/16/2022 21:10:07 77.31,-152.11 75.20 3.48 42
7 09/19/2022 01:53:05 77.25, 137.28 75.97 09/19/2022 01:52:00 77.25, 137.23 75.99 1.23 65
8 09/19/2022 02:42:32 -77.31, -55.31 103.95 09/19/2022 02:43:00 -77.31, -55.27 103.96 0.98 28
9 09/21/2022 07:26:08 -77.04,-125.21 103.42 09/21/2022 07:24:59 -76.97,-127.19 103.36 50.26 69
10 09/21/2022 08:15:39 77.27, 41.58 76.86 09/21/2022 08:15:51 77.26, 41.40 76.87 4.41 12
11 09/23/2022 13:48:46 -77.26, 138.34 102.30 09/23/2022 13:48:42 -77.29, 138.37 102.27 3.40 4



Historial Predications of SNOs between AQUA and NOAA-19
